Weather History for Tullahoma, TN

Change the Weather History Date:

Wednesday, November 21, 2012

  Actual Average Record
Temperature  
Mean Temperature 52 °F -  
Max Temperature 66 °F 55 °F 62 °F (2013)
Min Temperature 37 °F 37 °F 32 °F (2014)
Degree Days  
Heating Degree Days 14    
Growing Degree Days 2 (Base 50)    
Moisture  
Dew Point 42 °F    
Average Humidity 74    
Maximum Humidity 93    
Minimum Humidity 49    
Precipitation  
Precipitation 0.00 in - - ()
Sea Level Pressure  
Sea Level Pressure 30.18 in    
Wind  
Wind Speed 2 mph ()    
Max Wind Speed 9 mph    
Max Gust Speed -    
Visibility 9.8 miles    
Events      
Averages and records for this station are not official NWS values.
T = Trace of Precipitation, MM = Missing Value Source: Averaged Metar Reports

Daily Weather History Graph

Daily Weather History Graph

Search for Another Location

Airport:

Trip Planner

Search our weather history database for the weather conditions in past years. The results will help you decide how hot, cold, wet, or windy it might be!

Date:

Astronomy

Nov. 21, 2012 Rise Set
Actual Time 6:26 AM CST 4:35 PM CST
Civil Twilight 5:59 AM CST 5:02 PM CST
Nautical Twilight 5:28 AM CST 5:33 PM CST
Astronomical Twilight 4:57 AM CST 6:03 PM CST
Moon 12:39 PM CST (11/21) No Moon Set
Length of Visible Light 11h 03m
Length of Day
10h 08m
First Quarter, 62% of the Moon is Illuminated
Nov 21
First Quarter
Nov 28
Full
Dec 6
Last Quarter
Dec 13
New
Dec 19
First Quarter

Hourly Weather History & Observations

Time (CST) Temp. Dew Point Humidity Pressure Visibility Wind Dir Wind Speed Gust Speed Precip Events Conditions
12:15 AM 50.0 °F 42.8 °F 76% 30.12 in 10.0 mi Calm Calm - N/A   Mostly Cloudy
12:35 AM 48.2 °F 42.8 °F 82% 30.13 in 10.0 mi Calm Calm - N/A   Mostly Cloudy
12:55 AM 48.2 °F 42.8 °F 82% 30.12 in 8.0 mi Calm Calm - N/A   Overcast
1:15 AM 50.0 °F 44.6 °F 82% 30.12 in 10.0 mi Calm Calm - N/A   Mostly Cloudy
1:35 AM 48.2 °F 44.6 °F 87% 30.12 in 10.0 mi Calm Calm - N/A   Overcast
1:55 AM 46.4 °F 42.8 °F 87% 30.12 in 10.0 mi Calm Calm - N/A   Scattered Clouds
2:15 AM 46.4 °F 42.8 °F 87% 30.13 in 10.0 mi Calm Calm - N/A   Clear
2:35 AM 44.6 °F 42.8 °F 93% 30.12 in 10.0 mi Calm Calm - N/A   Clear
2:55 AM 42.8 °F 39.2 °F 87% 30.12 in 10.0 mi Calm Calm - N/A   Clear
3:15 AM 44.6 °F 41.0 °F 87% 30.12 in 10.0 mi Calm Calm - N/A   Clear
3:35 AM 41.0 °F 37.4 °F 87% 30.13 in 10.0 mi Calm Calm - N/A   Clear
3:55 AM 42.8 °F 39.2 °F 87% 30.13 in 10.0 mi Calm Calm - N/A   Clear
4:15 AM 41.0 °F 37.4 °F 87% 30.14 in 10.0 mi Calm Calm - N/A   Clear
4:35 AM 39.2 °F 37.4 °F 93% 30.14 in 10.0 mi Calm Calm - N/A   Clear
4:55 AM 39.2 °F 37.4 °F 93% 30.15 in 10.0 mi Calm Calm - N/A   Clear
5:15 AM 39.2 °F 37.4 °F 93% 30.15 in 10.0 mi Calm Calm - N/A   Clear
5:35 AM 39.2 °F 37.4 °F 93% 30.16 in 10.0 mi Calm Calm - N/A   Clear
5:55 AM 39.2 °F 37.4 °F 93% 30.16 in 10.0 mi Calm Calm - N/A   Clear
6:15 AM 39.2 °F 35.6 °F 87% 30.17 in 10.0 mi Calm Calm - N/A   Clear
6:35 AM 37.4 °F 35.6 °F 93% 30.17 in 10.0 mi Calm Calm - N/A   Clear
6:55 AM 39.2 °F 35.6 °F 87% 30.18 in 10.0 mi Calm Calm - N/A   Clear
7:15 AM 42.8 °F 39.2 °F 87% 30.19 in 10.0 mi Calm Calm - N/A   Clear
7:35 AM 46.4 °F 42.8 °F 87% 30.19 in 10.0 mi Calm Calm - N/A   Clear
7:55 AM 48.2 °F 44.6 °F 87% 30.20 in 10.0 mi Calm Calm - N/A   Clear
8:15 AM 51.8 °F 44.6 °F 76% 30.21 in 10.0 mi NNW 4.6 mph - N/A   Clear
8:35 AM 53.6 °F 44.6 °F 72% 30.21 in 10.0 mi NNW 3.5 mph - N/A   Clear
8:55 AM 53.6 °F 44.6 °F 72% 30.21 in 10.0 mi NNE 4.6 mph - N/A   Clear
9:15 AM 55.4 °F 44.6 °F 67% 30.21 in 10.0 mi NNE 4.6 mph - N/A   Clear
9:35 AM 57.2 °F 44.6 °F 63% 30.21 in 9.0 mi NNE 4.6 mph - N/A   Clear
9:55 AM 59.0 °F 44.6 °F 59% 30.22 in 10.0 mi North 5.8 mph - N/A   Clear
10:15 AM 60.8 °F 44.6 °F 55% 30.21 in 10.0 mi NE 4.6 mph - N/A   Clear
10:35 AM 62.6 °F 44.6 °F 52% 30.21 in 3.0 mi North 6.9 mph - N/A   Clear
10:55 AM 62.6 °F 44.6 °F 52% 30.21 in 9.0 mi NE 4.6 mph - N/A   Clear
11:15 AM 62.6 °F 46.4 °F 55% 30.20 in 10.0 mi North 5.8 mph - N/A   Clear
11:35 AM 62.6 °F 44.6 °F 52% 30.20 in 10.0 mi NE 4.6 mph - N/A   Clear
11:55 AM 64.4 °F 46.4 °F 52% 30.19 in 9.0 mi NE 4.6 mph - N/A   Clear
12:15 PM 64.4 °F 46.4 °F 52% 30.19 in 10.0 mi North 4.6 mph - N/A   Clear
12:35 PM 64.4 °F 46.4 °F 52% 30.18 in 10.0 mi Calm Calm - N/A   Clear
12:55 PM 64.4 °F 46.4 °F 52% 30.18 in 6.0 mi NNW 5.8 mph - N/A   Clear
1:15 PM 64.4 °F 46.4 °F 52% 30.18 in 10.0 mi North 4.6 mph - N/A   Clear
1:35 PM 66.2 °F 46.4 °F 49% 30.17 in 10.0 mi NW 8.1 mph - N/A   Clear
1:55 PM 64.4 °F 46.4 °F 52% 30.16 in 10.0 mi WNW 4.6 mph - N/A   Clear
2:15 PM 64.4 °F 46.4 °F 52% 30.16 in 10.0 mi WNW 6.9 mph - N/A   Clear
2:35 PM 64.4 °F 46.4 °F 52% 30.17 in 10.0 mi NW 8.1 mph - N/A   Clear
2:55 PM 64.4 °F 46.4 °F 52% 30.17 in 10.0 mi NNW 9.2 mph - N/A   Clear
3:15 PM 62.6 °F 44.6 °F 52% 30.17 in 10.0 mi NW 8.1 mph - N/A   Clear
3:35 PM 62.6 °F 44.6 °F 52% 30.18 in 10.0 mi NNW 9.2 mph - N/A   Clear
4:15 PM 59.0 °F 44.6 °F 59% 30.18 in 10.0 mi NNW 6.9 mph - N/A   Clear
4:35 PM 57.2 °F 44.6 °F 63% 30.19 in 10.0 mi NNW 5.8 mph - N/A   Clear
4:55 PM 55.4 °F 42.8 °F 63% 30.20 in 10.0 mi NNW 6.9 mph - N/A   Clear
5:15 PM 55.4 °F 42.8 °F 63% 30.20 in 10.0 mi NNW 5.8 mph - N/A   Clear
5:35 PM 53.6 °F 42.8 °F 67% 30.20 in 10.0 mi North 5.8 mph - N/A   Clear
5:55 PM 53.6 °F 42.8 °F 67% 30.21 in 10.0 mi North 3.5 mph - N/A   Clear
6:15 PM 51.8 °F 42.8 °F 71% 30.21 in 10.0 mi North 4.6 mph - N/A   Clear
6:35 PM 50.0 °F 41.0 °F 71% 30.21 in 10.0 mi NNW 3.5 mph - N/A   Clear
6:55 PM 50.0 °F 41.0 °F 71% 30.21 in 10.0 mi NNW 4.6 mph - N/A   Clear
7:15 PM 48.2 °F 41.0 °F 76% 30.21 in 10.0 mi Calm Calm - N/A   Clear
7:35 PM 48.2 °F 41.0 °F 76% 30.21 in 10.0 mi Calm Calm - N/A   Clear
7:55 PM 44.6 °F 39.2 °F 81% 30.21 in 10.0 mi Calm Calm - N/A   Clear
8:15 PM 46.4 °F 39.2 °F 76% 30.21 in 10.0 mi Calm Calm - N/A   Clear
8:35 PM 44.6 °F 37.4 °F 76% 30.21 in 10.0 mi Calm Calm - N/A   Clear
8:55 PM 42.8 °F 39.2 °F 87% 30.21 in 10.0 mi Calm Calm - N/A   Clear
9:15 PM 42.8 °F 37.4 °F 81% 30.21 in 10.0 mi Calm Calm - N/A   Clear
9:35 PM 42.8 °F 37.4 °F 81% 30.22 in 10.0 mi Calm Calm - N/A   Clear
9:55 PM 44.6 °F 39.2 °F 81% 30.22 in 10.0 mi Calm Calm - N/A   Clear
10:15 PM 39.2 °F 35.6 °F 87% 30.21 in 10.0 mi Calm Calm - N/A   Clear
10:35 PM 39.2 °F 37.4 °F 93% 30.21 in 10.0 mi Calm Calm - N/A   Clear
10:55 PM 39.2 °F 37.4 °F 93% 30.21 in 10.0 mi Calm Calm - N/A   Clear
11:15 PM 39.2 °F 35.6 °F 87% 30.21 in 10.0 mi Calm Calm - N/A   Clear
11:35 PM 39.2 °F 35.6 °F 87% 30.20 in 10.0 mi Calm Calm - N/A   Clear
11:55 PM 39.2 °F 35.6 °F 87% 30.20 in 10.0 mi Calm Calm - N/A   Clear